📊 Raw Sensor Data

Showing records 43451 to 43475 of 85,018 total

ID Distance (ft) Battery V Battery A Int Temp (°F) Int Humid (%) Ext Temp (°F) Solar V RSSI SNR Time Stamp
41580 15.2 3.92 -5 50 43 52 0.00 -68 8 05/25/2025 04:00 AM
41579 15.2 3.84 -5 50 43 52 0.00 -69 9 05/25/2025 03:45 AM
41578 15.2 3.85 -5 50 43 52 0.10 -71 8 05/25/2025 03:30 AM
41577 15.2 3.85 -5 50 43 52 0.00 -68 8 05/25/2025 03:15 AM
41576 15.2 3.85 -5 50 43 52 0.10 -70 8 05/25/2025 03:00 AM
41575 15.2 3.85 -5 51 43 52 0.10 -72 8 05/25/2025 02:45 AM
41574 15.2 3.85 -5 51 43 52 0.10 -70 8 05/25/2025 02:30 AM
41573 15.2 3.92 -5 51 43 52 0.00 -67 8 05/25/2025 02:15 AM
41572 15.2 3.85 -5 52 43 53 0.00 -68 8 05/25/2025 02:00 AM
41571 15.2 3.85 -5 52 43 53 0.00 -68 8 05/25/2025 01:45 AM
41570 15.2 3.92 -5 52 43 53 0.10 -69 8 05/25/2025 01:30 AM
41569 15.2 3.85 -5 52 43 53 0.00 -68 8 05/25/2025 01:15 AM
41568 15.2 3.92 -5 52 43 53 0.00 -69 8 05/25/2025 01:00 AM
41567 15.2 3.85 -5 52 43 53 0.10 -68 8 05/25/2025 12:45 AM
41566 15.2 3.93 -5 52 44 53 0.10 -68 8 05/25/2025 12:30 AM
41565 15.2 3.85 -5 53 44 54 0.00 -70 8 05/25/2025 12:15 AM
41564 15.2 3.85 -5 53 44 54 0.00 -71 8 05/25/2025 12:00 AM
41563 15.2 3.93 -5 53 44 54 0.00 -69 8 05/24/2025 11:45 PM
41562 15.2 3.85 -5 53 44 54 0.00 -69 8 05/24/2025 11:30 PM
41561 15.2 3.85 -5 54 45 54 0.00 -69 8 05/24/2025 11:15 PM
41560 15.2 3.93 -5 54 45 55 0.00 -70 8 05/24/2025 11:00 PM
41559 15.2 3.85 -5 54 45 55 0.00 -68 8 05/24/2025 10:45 PM
41558 15.2 3.93 -5 55 46 55 0.00 -69 9 05/24/2025 10:30 PM
41557 15.2 3.85 -5 56 46 56 0.00 -69 8 05/24/2025 10:15 PM
41556 15.2 3.85 -5 56 46 57 0.00 -68 7 05/24/2025 10:00 PM